Regional Weather Roundup
Issued by NWS

Home | Current Version | Previous Version | Text Only | Print | Product List | Glossary On
Versions: 1 2 3 4 5 6 7 8 9 10 11 12 13 14 15 16 17 18 19 20 21 22 23 24 25 26 27 28 29 30 31 32 33 34 35 36 37 38 39 40 41 42 43 44 45 46 47 48 49 50
000
ASPQ40 PGUM 212012
RWRPQ
WEATHER ROUNDUP FOR THE MARIANAS AND MICRONESIA
NATIONAL WEATHER SERVICE TIYAN GU
600 AM CHST SUN OCT 22 2017

GUZ001>004-212100-
MARIANA ISLANDS-

CITY           SKY/WX    TMP DP  RH WIND       PRES   REMARKS
GUAM AIRPORT   MOCLDY    82  81  94 N7        29.79R HX  95
ANDERSEN AFB   PTCLDY    79  73  83 N9        29.80R
ROTA AIRPORT   NOT AVBL
TINIAN AP      NOT AVBL
SAIPAN AP      CLOUDY    81  79  94 E6        29.77R

$$

PMZ161-212100-
REPUBLIC OF PALAU-

CITY           SKY/WX    TMP DP  RH WIND       PRES   REMARKS
KOROR AP       MOCLDY    81  75  83 SW5       29.78R
KOROR WSO      NOT AVBL

$$

PMZ171>174-212100-
FEDERATED STATES OF MICRONESIA-

CITY           SKY/WX    TMP DP  RH WIND       PRES   REMARKS
YAP AIRPORT    MOCLDY    84  77  79 VRB7      29.75R HX  94
CHUUK AP       CLOUDY    84  81  89 W9        29.73R HX  98
POHNPEI AP     NOT AVBL
POHNPEI WSO    CLOUDY    79  75  89 SE3       29.77R
KOSRAE AP      NOT AVBL

$$

PMZ181-212100-
REPUBLIC OF THE MARSHALL ISLANDS-

CITY           SKY/WX    TMP DP  RH WIND       PRES   REMARKS
KWAJALEIN AP   CLOUDY    77  75  94 SW17G24   29.83S
MAJURO AP      LGT RAIN  79  77  94 SE12      29.85S
MAJURO WSO     NOT AVBL

$$




USA.gov is the U.S. government's official web portal to all federal, state and local government web resources and services.